Location: Владивосток
(43.1151°N, 131.8856°E)
Time: 19:12:16
(UTC+10:00)

CZ-6A R/B DEB - Visible Passes

Search period start: 07 October 2024 00:00
Search period end: 17 October 2024 00:00
Orbit: 635 x 805 km, 98.4° (Epoch: 06 October)

Date Brightness Start Highest point End Pass type
(mag) Time Alt. Az. Time Alt. Az. Time Alt. Az.
07 Oct ? 19:42:28 10° SSW 19:46:07 25° W 19:49:51 10° NW visible
09 Oct ? 06:52:24 10° NE 06:56:35 26° E 07:00:51 10° SSE visible
09 Oct ? 19:40:15 10° SSW 19:44:00 27° W 19:47:52 10° NW visible
11 Oct ? 06:50:11 10° NE 06:54:19 24° E 06:58:32 10° SSE visible
11 Oct ? 19:37:45 10° SSW 19:41:36 29° W 19:45:35 10° NW visible
13 Oct ? 06:47:41 10° NE 06:51:46 23° E 06:55:53 10° SE visible
13 Oct ? 19:34:58 10° SSW 19:38:55 31° W 19:43:02 10° NNW visible
14 Oct ? 20:26:41 10° W 20:27:02 10° W 20:27:23 10° W visible
15 Oct ? 06:44:56 10° NE 06:48:55 22° E 06:52:57 10° SE visible
15 Oct ? 19:31:54 10° SSW 19:35:58 33° W 19:40:12 10° NNW visible
16 Oct ? 20:22:31 10° WSW 20:23:54 11° W 20:25:18 10° WNW visible
